Vorticity
4 3 4 5 4 2 -0 5 12 6 1 3 3 4 6 4 6 9 8 7 6 7 6 7 6 5 5 5 6 6 6 6 6 6 7 8 8 8 7 8 10 12 12 9 5 4 4 5 5 5 6 6 6 7 6 7 7 6 6 6 5 5 5 5 5 5 5 5 5 6 6 5 6 6 5 5 5 5 5 7 8 8 8 8 9
5 4 4 5 4 3 2 7 16 11 4 4 5 4 3 7 11 11 9 7 7 7 6 6 6 6 6 5 6 6 6 5 5 6 6 7 6 6 7 9 11 10 8 5 4 4 5 5 6 6 7 7 7 7 7 7 7 6 5 5 5 5 5 5 5 5 5 5 6 6 6 5 5 6 6 5 6 6 6 6 7 8 7 8 9
5 11 7 5 4 2 5 8 10 9 6 4 6 4 1 12 16 8 6 6 6 5 6 5 6 7 6 6 6 6 6 5 5 5 5 6 6 7 9 10 10 8 5 4 4 5 6 6 6 7 7 7 7 7 7 8 6 6 6 5 6 6 5 6 5 5 5 6 7 6 6 6 6 6 6 6 6 6 7 7 7 7 7 7 7
7 15 18 14 7 2 8 11 6 4 4 6 9 5 5 13 12 7 6 5 5 6 6 6 6 6 6 6 7 6 5 4 5 5 5 5 7 8 10 11 9 6 4 4 5 6 5 6 6 6 6 7 7 7 7 6 6 5 5 5 5 5 6 6 6 6 6 6 8 7 6 7 7 6 6 5 6 6 8 9 7 7 8 7 7
6 9 18 17 9 5 8 9 5 5 7 9 9 6 8 10 6 7 7 4 6 7 6 6 5 6 7 7 7 6 5 5 5 5 6 6 8 10 12 11 7 4 4 5 5 5 5 5 5 5 6 7 7 6 6 5 5 5 5 5 6 7 7 8 7 6 7 7 8 8 7 7 7 6 5 5 6 6 7 8 7 6 7 8 7
6 6 11 9 6 7 10 11 7 13 14 8 9 12 14 11 7 5 6 6 6 6 5 6 6 6 7 7 6 5 5 5 5 5 6 9 11 12 12 9 5 4 4 5 5 5 4 4 4 6 7 7 7 6 6 6 6 6 6 7 8 8 8 8 7 7 7 7 8 8 7 6 6 5 5 6 6 6 7 7 7 6 6 8 8
7 5 7 6 7 7 10 9 12 26 17 5 13 16 11 10 8 5 7 6 5 6 5 6 5 7 7 7 6 5 6 5 6 6 8 11 12 12 10 7 4 4 5 5 4 4 4 4 5 6 6 6 6 6 6 5 5 6 7 7 7 7 7 7 7 7 8 8 8 8 7 7 6 6 6 6 7 7 7 7 7 7 7 8 10
9 5 6 7 9 11 11 7 13 27 13 5 11 8 7 7 5 5 6 5 6 6 5 5 5 7 7 6 6 5 6 6 6 7 10 12 10 9 8 6 5 4 4 4 4 5 5 5 5 5 6 5 5 4 4 4 5 5 6 6 5 6 6 6 6 7 9 10 9 8 7 7 7 7 8 7 7 8 8 7 7 6 7 9 10
9 6 7 6 8 10 11 10 12 16 8 7 6 5 8 5 4 7 8 8 7 6 4 5 5 7 6 6 6 5 6 6 7 9 11 11 8 7 7 5 5 5 4 5 5 5 5 5 5 5 5 5 5 5 5 6 7 6 6 5 5 5 6 6 6 7 10 10 9 7 6 7 7 7 7 8 8 8 8 8 8 8 8 8 7
7 7 8 6 6 6 5 7 9 10 6 6 6 9 8 2 6 9 8 8 6 5 5 5 5 7 6 6 5 5 5 6 8 11 12 9 7 6 6 5 5 5 5 6 5 5 5 4 5 5 6 6 6 7 7 8 8 7 6 6 5 6 7 8 8 9 10 9 8 7 7 8 7 6 7 7 7 7 8 8 9 9 8 7 7
6 8 7 5 5 5 5 4 5 6 5 5 8 9 5 5 9 9 7 6 5 5 5 5 5 6 5 5 5 5 6 7 10 12 10 7 6 6 6 5 5 6 6 6 6 5 5 5 6 6 7 6 6 7 7 7 7 6 6 5 5 7 9 9 9 11 11 10 8 8 9 8 7 7 6 5 6 7 8 8 9 8 7 7 8
5 7 6 5 5 6 7 6 4 6 5 5 9 7 3 7 9 8 7 5 6 6 5 5 5 5 5 5 6 6 6 8 11 11 8 6 6 5 5 5 5 6 6 5 6 5 5 5 6 6 5 5 7 7 7 7 5 5 5 5 6 8 10 10 11 12 11 10 9 9 9 7 8 6 5 6 7 8 9 9 9 8 6 7 9
6 6 10 5 5 5 5 7 6 9 7 4 10 8 5 9 8 7 6 5 6 6 5 5 6 5 5 5 6 6 7 10 10 8 6 5 5 5 5 6 6 5 5 6 6 6 6 6 5 6 5 6 7 7 6 5 4 4 5 6 8 10 11 10 11 11 9 10 10 9 8 7 8 5 6 7 8 10 11 11 10 8 7 7 8
11 4 9 6 6 7 6 9 7 6 3 5 10 5 7 11 6 4 5 5 6 5 5 5 6 6 5 6 6 6 8 9 9 7 6 5 5 5 5 5 5 5 6 7 7 7 7 7 6 6 7 8 8 6 4 4 5 5 6 8 9 9 11 10 9 9 7 7 9 9 9 8 7 4 6 8 9 10 11 11 11 9 7 7 8
16 10 11 7 6 6 5 7 5 5 6 6 9 8 11 10 3 3 4 5 6 5 6 6 7 6 6 6 5 7 8 9 7 6 5 5 5 5 5 5 5 7 7 7 8 8 7 7 6 6 7 7 6 5 4 5 6 6 7 10 10 8 9 9 7 8 7 6 9 12 11 8 5 4 6 8 7 7 8 10 11 10 8 7 7
11 18 22 19 14 10 9 9 10 18 19 12 12 15 14 7 2 3 4 6 6 6 6 6 6 6 6 6 6 7 7 8 6 5 5 6 5 5 6 4 4 9 9 8 8 7 7 6 6 6 6 6 5 4 4 5 6 7 9 9 9 8 7 7 7 7 6 5 8 14 13 8 4 4 5 6 6 5 5 6 8 10 9 8 7
5 9 16 20 17 13 13 15 20 25 25 17 14 14 11 6 2 3 5 5 6 6 6 6 7 6 6 6 6 6 7 7 5 5 5 5 5 5 7 3 4 9 8 7 7 6 7 7 7 6 7 7 4 3 5 6 7 7 9 8 8 10 8 6 7 7 6 5 7 13 11 7 5 3 4 5 5 5 5 5 6 8 9 9 9
5 5 7 11 9 9 8 9 13 11 12 13 8 7 8 7 4 4 6 6 7 7 7 7 7 6 6 6 6 7 7 6 3 6 6 5 5 6 7 5 5 8 6 6 7 6 8 7 7 7 7 7 4 3 6 7 7 6 8 9 8 8 7 6 7 7 5 4 7 10 9 6 4 3 4 5 6 6 6 6 6 7 8 8 9
4 6 7 7 7 8 5 4 5 1 3 7 4 4 5 6 7 5 5 7 8 8 8 7 6 7 7 7 7 7 7 4 3 7 6 5 6 6 7 5 5 7 7 7 6 7 8 7 7 7 7 7 4 4 6 5 6 8 9 9 8 7 6 7 6 7 6 5 9 10 7 4 3 3 4 4 6 6 6 7 7 7 7 7 7
3 4 6 7 7 8 6 7 6 3 3 4 5 6 3 7 10 5 1 6 8 7 8 7 7 7 7 7 7 6 5 2 4 7 6 6 7 6 4 3 6 8 7 7 7 7 7 7 7 7 7 5 3 4 5 4 6 9 8 7 8 8 6 6 5 5 6 7 12 13 7 4 4 5 5 4 4 5 6 6 6 7 7 7 6
3 3 5 5 6 7 7 7 7 6 3 3 6 6 6 9 9 2 -0 5 7 7 7 7 7 6 6 7 5 4 2 3 6 6 7 7 6 5 3 4 7 8 7 7 7 6 6 6 7 6 5 4 3 4 5 5 7 8 7 6 7 9 7 6 5 5 6 8 12 12 9 6 4 6 6 5 5 4 4 5 6 6 6 6 6
3 4 5 5 5 5 5 5 6 6 5 5 6 6 6 6 4 1 2 5 7 6 7 7 7 6 6 5 4 3 2 4 6 7 8 6 4 5 5 7 7 6 6 6 6 6 6 6 6 6 5 3 3 5 5 5 6 7 7 6 7 9 8 6 7 7 6 8 10 11 10 7 5 7 8 5 6 5 4 5 5 5 4 5 6
3 5 7 5 4 4 3 4 5 6 6 5 5 6 6 3 3 4 4 6 7 7 7 7 7 7 6 5 4 4 3 5 7 8 7 6 6 6 6 7 6 5 5 6 6 6 6 7 6 6 5 4 3 5 5 5 6 6 6 6 7 8 10 10 9 8 8 8 9 11 11 9 6 7 10 7 5 5 4 5 5 4 3 3 5
3 4 7 5 4 4 4 3 3 5 5 4 4 5 5 3 4 4 4 6 6 7 7 7 7 7 7 6 5 6 7 8 8 7 6 7 8 7 6 5 5 6 6 6 6 6 7 6 6 5 5 4 4 5 6 6 5 6 6 7 9 10 11 10 7 7 8 9 9 10 11 11 7 5 10 9 5 5 5 6 6 6 5 4 5
6 6 6 5 5 5 6 5 4 5 5 5 4 4 5 4 4 4 4 4 5 6 6 6 7 7 7 7 7 7 9 9 7 5 6 8 9 6 6 5 6 6 5 6 6 6 6 5 5 5 5 5 4 5 7 7 6 7 6 8 11 8 6 5 5 7 7 8 8 8 11 11 8 5 6 5 4 6 6 7 7 7 6 4 6
7 8 7 7 7 6 6 6 5 5 6 6 5 6 6 4 4 5 4 3 4 5 5 6 6 6 7 8 8 7 8 9 6 4 5 8 8 6 5 5 6 6 5 6 6 6 6 5 6 6 6 6 5 5 7 7 7 8 5 10 13 5 5 5 4 9 8 7 7 7 8 7 9 8 9 8 8 9 7 7 7 7 7 3 8
7 7 8 7 6 6 6 5 6 5 5 5 6 6 5 5 5 5 4 5 5 5 6 6 6 5 6 7 7 9 11 8 5 4 5 7 8 6 5 5 6 6 5 6 5 6 6 6 6 6 7 7 5 5 7 7 7 7 5 14 16 5 10 11 5 7 6 6 7 7 7 6 8 9 11 12 10 9 6 6 6 6 6 4 8
7 8 8 8 7 7 7 7 7 5 5 4 5 7 7 6 5 4 5 5 6 6 7 7 7 6 4 5 6 9 11 7 4 5 5 7 7 5 5 5 5 5 5 5 5 5 6 5 6 6 7 6 6 6 8 7 6 7 6 13 18 7 9 13 7 5 4 8 8 6 9 8 9 9 8 9 8 9 7 7 9 5 3 6 7
7 7 8 8 9 8 8 7 8 7 6 5 5 7 8 8 8 7 6 6 5 5 5 5 7 8 5 4 6 7 8 6 4 5 5 6 7 5 5 5 4 6 6 5 5 5 6 6 5 6 6 5 7 7 7 7 6 7 7 11 16 9 7 12 10 7 7 10 8 7 11 8 8 8 6 8 8 9 8 7 9 6 5 10 10
6 7 8 7 8 9 9 8 8 8 9 8 7 5 6 8 7 4 4 6 6 5 4 3 4 6 5 4 6 6 7 6 4 5 5 5 6 5 5 4 4 7 6 5 5 4 7 7 5 6 6 4 5 6 6 7 6 7 9 9 11 7 8 12 10 9 9 8 7 8 10 8 8 7 8 9 8 10 9 7 8 5 8 10 8
6 7 8 8 8 7 9 8 7 7 8 9 8 7 6 6 3 1 3 6 8 6 4 5 5 5 4 3 6 6 7 6 4 6 5 5 6 4 5 3 3 7 6 6 5 4 6 5 5 7 7 6 6 6 7 7 5 7 9 8 8 9 9 10 8 8 6 5 7 8 7 8 8 7 9 9 8 11 8 10 9 3 9 9 9
7 8 8 9 9 7 7 7 6 7 7 8 8 8 7 7 6 4 5 7 10 9 6 7 8 7 5 2 4 7 8 7 5 6 6 5 5 4 4 3 3 7 5 5 6 5 6 5 5 6 5 6 6 8 9 6 5 8 10 7 9 10 8 8 7 4 4 6 6 4 5 7 8 7 9 9 9 9 6 13 18 15 17 8 9
7 7 7 9 9 8 9 7 7 7 7 8 8 7 7 7 9 9 8 8 10 10 8 8 8 9 10 4 3 6 9 8 4 6 8 5 4 5 5 4 5 6 5 5 5 5 7 6 4 4 5 5 6 8 8 6 6 8 9 7 9 8 4 6 5 5 12 12 4 2 6 8 10 9 9 10 8 8 5 7 18 23 18 4 7
6 7 7 9 8 7 11 11 9 9 9 8 7 6 7 7 8 10 9 9 9 7 8 11 10 10 11 7 3 4 7 8 4 2 6 5 4 5 5 4 6 7 6 6 5 5 7 7 4 4 6 7 7 7 8 8 7 7 7 8 10 5 2 8 9 8 15 12 4 5 9 10 11 7 8 9 7 8 4 4 14 13 5 6 11
5 2 5 7 5 7 10 10 9 10 10 10 10 8 8 8 8 9 9 10 8 6 8 10 9 9 12 10 5 4 6 8 4 -1 2 5 5 5 5 4 6 8 6 6 7 7 7 5 5 6 7 8 8 7 8 9 7 7 8 8 8 4 6 15 12 9 12 9 7 10 11 11 9 7 8 8 8 7 6 10 10 4 4 12 14
7 -7 3 9 4 7 7 5 6 7 10 11 12 10 9 9 9 8 8 10 8 7 8 8 7 9 13 14 9 5 5 6 7 2 0 3 5 4 5 5 7 8 6 5 7 7 6 5 6 6 6 8 8 8 9 9 8 7 7 7 8 6 11 15 9 8 11 9 10 11 11 11 8 8 8 7 9 6 7 12 1 -0 13 15 11
9 -8 5 10 4 7 7 5 5 5 9 10 10 11 11 10 9 9 8 10 9 8 8 7 7 9 11 15 12 7 4 4 6 7 4 3 5 4 5 8 8 8 6 5 6 6 5 6 7 5 6 7 7 7 9 9 8 7 7 8 9 9 12 12 8 10 10 8 9 8 8 9 6 8 7 3 2 -7 -5 11 6 5 15 13 11
6 1 7 7 6 7 6 6 5 6 9 10 9 10 11 10 9 9 10 10 8 8 8 7 7 8 10 14 12 7 5 4 5 9 8 3 5 5 5 8 9 9 7 6 7 6 4 5 7 7 7 7 7 8 9 8 7 8 10 10 9 9 9 9 9 9 8 8 9 9 7 6 6 6 5 2 -1 -8 -2 15 17 11 11 10 13
4 6 6 6 9 8 7 7 5 6 8 9 11 11 11 12 10 10 11 12 9 7 8 8 8 9 10 11 11 8 7 7 6 9 8 4 5 6 5 8 9 8 7 7 7 5 4 5 7 9 8 7 7 8 9 8 7 9 9 7 6 6 6 8 8 6 6 8 8 10 8 6 8 9 11 12 8 7 12 16 14 13 12 9 11
3 6 5 5 7 8 9 8 7 7 7 7 9 9 12 13 12 11 12 14 12 8 8 9 7 8 10 10 11 11 11 10 9 9 6 4 5 5 6 8 9 7 6 7 7 5 4 5 7 9 8 6 6 8 8 7 6 7 5 5 5 4 5 8 8 6 6 7 7 7 6 6 9 10 12 15 11 12 14 11 11 14 13 8 9
5 5 5 5 4 6 7 7 9 9 9 8 8 9 9 10 11 12 12 14 13 10 9 8 7 7 8 8 11 11 11 11 11 9 5 4 6 6 7 8 8 7 6 7 7 6 6 7 8 8 7 6 7 8 7 7 6 5 4 6 6 6 9 9 5 5 6 7 7 5 5 5 7 8 12 13 12 16 14 8 12 14 11 10 11
6 5 5 5 5 6 6 8 10 9 10 10 10 11 10 10 12 12 13 12 11 12 13 11 9 7 8 12 11 8 8 10 10 9 5 5 7 6 7 9 8 7 6 6 7 8 8 9 8 6 6 7 8 8 7 7 7 6 7 8 7 8 9 6 5 7 8 8 7 5 5 5 6 6 11 16 17 16 11 9 13 11 9 10 10
7 6 5 5 7 9 8 8 8 9 10 10 10 10 10 11 12 13 12 10 10 13 14 12 10 7 11 16 10 4 7 10 9 8 6 7 7 7 8 9 8 6 6 7 7 7 8 8 7 6 7 7 8 7 6 7 6 6 8 7 7 8 7 7 9 10 10 8 6 5 5 5 7 5 5 15 17 11 7 8 11 9 7 9 9
7 9 9 7 7 7 8 7 7 10 10 9 9 8 8 10 11 12 12 10 11 13 13 12 10 9 14 15 4 0 7 9 9 8 7 8 8 8 9 8 7 6 6 7 7 7 7 7 7 7 7 7 7 6 5 6 6 7 7 6 7 9 9 10 10 10 8 6 5 5 6 5 6 6 4 9 12 8 6 6 8 9 8 8 8
6 11 12 11 9 5 7 8 8 10 9 9 10 9 9 10 10 10 10 10 11 13 13 12 12 10 11 9 0 1 7 8 9 8 8 9 9 9 9 7 6 5 6 8 7 7 7 6 6 7 8 8 7 6 5 6 7 7 7 7 8 8 8 8 7 7 6 5 5 5 7 7 5 6 5 4 6 7 7 6 6 8 8 8 8
8 12 12 11 9 5 7 9 9 10 9 8 10 10 10 9 10 9 8 10 10 11 13 14 14 10 6 5 4 5 7 8 9 9 9 10 10 10 9 6 5 6 7 8 8 8 7 6 6 8 9 8 6 6 6 6 6 7 7 7 7 6 6 6 6 6 6 6 6 5 5 5 4 5 5 5 6 6 5 6 6 6 7 8 8
7 8 11 10 7 6 7 9 9 10 10 10 10 10 9 9 9 9 9 10 10 10 12 15 15 12 8 7 7 6 6 9 10 9 10 10 10 9 7 6 6 6 7 7 8 8 6 6 7 8 9 9 7 7 7 7 7 7 7 7 6 5 5 7 7 6 6 6 5 5 5 4 4 5 6 7 7 7 5 5 6 6 6 7 7
6 1 4 7 5 6 5 7 9 9 9 10 10 9 9 9 8 9 9 8 9 9 10 14 14 13 12 9 6 6 7 10 10 10 11 10 8 7 6 6 6 6 6 7 8 7 5 7 8 7 8 9 7 7 7 6 6 7 7 7 6 6 6 6 6 6 7 6 5 4 4 5 6 4 4 8 9 8 6 5 6 6 5 6 6
11 6 6 7 5 6 5 6 9 9 9 9 11 11 8 9 9 8 8 7 8 8 8 13 13 10 10 8 7 8 8 10 11 11 11 9 8 6 5 6 6 6 6 7 8 7 6 7 7 7 9 9 8 7 6 5 5 6 6 6 6 7 7 6 6 6 6 6 5 4 3 4 5 1 2 8 9 7 7 6 5 6 6 6 6
8 8 9 9 8 8 5 5 8 8 9 8 9 12 9 9 10 8 7 8 10 9 7 12 13 9 9 9 10 10 9 11 13 12 10 8 8 6 5 6 7 7 7 7 7 7 7 7 6 7 9 8 8 7 6 4 6 7 6 7 8 8 7 6 6 6 5 4 4 4 3 3 4 2 1 5 9 7 7 8 6 5 6 7 6
4 6 8 8 9 11 7 7 7 4 7 7 6 11 11 10 11 8 7 9 11 11 8 9 12 10 10 10 10 9 10 12 14 11 8 7 7 6 6 6 6 6 6 8 8 7 7 7 5 7 9 8 8 7 5 5 7 7 7 7 7 7 7 6 5 4 3 3 5 5 5 4 3 4 3 4 8 7 6 8 7 6 6 7 7
Height
5886 5887 5888 5889 5889 5889 5890 5892 5892 5892 5893 5892 5891 5891 5892 5893 5894 5894 5894 5894 5895 5895 5896 5897 5898 5899 5900 5900 5901 5901 5901 5901 5901 5902 5902 5903 5904 5905 5906 5906 5906 5907 5907 5907 5908 5908 5909 5909 5909 5908 5908 5908 5909 5909 5910 5910 5910 5909 5909 5908 5908 5908 5909 5909 5910 5910 5910 5910 5910 5910 5910 5910 5910 5910 5910 5910 5910 5910 5910 5910 5910 5911 5912 5913 5913
5886 5887 5888 5889 5888 5888 5889 5890 5891 5891 5892 5892 5891 5891 5892 5893 5894 5894 5894 5895 5895 5896 5896 5897 5899 5899 5900 5900 5901 5901 5901 5901 5901 5902 5902 5903 5904 5905 5906 5907 5907 5907 5908 5908 5909 5910 5910 5911 5911 5910 5910 5910 5910 5910 5910 5910 5910 5909 5909 5909 5909 5909 5909 5910 5910 5910 5910 5910 5910 5910 5910 5910 5910 5910 5909 5909 5910 5910 5909 5909 5910 5911 5911 5912 5913
5886 5887 5887 5887 5887 5886 5887 5888 5889 5890 5890 5891 5891 5891 5892 5893 5893 5894 5894 5895 5895 5896 5896 5898 5899 5900 5901 5901 5901 5901 5901 5901 5902 5902 5903 5904 5905 5905 5906 5907 5907 5908 5908 5909 5910 5910 5911 5911 5912 5911 5911 5911 5911 5911 5911 5911 5911 5910 5910 5910 5909 5910 5910 5910 5910 5910 5910 5910 5910 5910 5910 5910 5910 5909 5909 5909 5909 5909 5909 5909 5910 5910 5911 5912 5912
5885 5886 5885 5885 5885 5884 5885 5887 5888 5888 5889 5891 5891 5891 5892 5892 5892 5893 5894 5895 5896 5896 5897 5898 5900 5900 5901 5901 5901 5901 5901 5901 5902 5902 5903 5904 5905 5906 5907 5907 5908 5908 5909 5909 5910 5911 5911 5912 5912 5912 5911 5911 5911 5911 5911 5911 5911 5911 5910 5910 5910 5910 5910 5910 5910 5910 5910 5910 5910 5910 5910 5909 5909 5909 5909 5908 5908 5908 5909 5909 5910 5910 5911 5911 5911
5885 5884 5884 5884 5883 5884 5886 5887 5888 5888 5889 5890 5892 5892 5892 5892 5892 5892 5894 5895 5896 5896 5897 5899 5900 5901 5901 5901 5901 5901 5901 5901 5902 5902 5903 5904 5905 5906 5907 5908 5908 5909 5909 5910 5910 5911 5912 5912 5912 5912 5912 5911 5911 5911 5911 5911 5911 5911 5911 5911 5910 5910 5910 5910 5910 5910 5910 5910 5910 5909 5909 5909 5908 5908 5908 5907 5907 5908 5908 5909 5909 5910 5910 5910 5910
5883 5883 5883 5882 5883 5885 5887 5887 5887 5888 5889 5890 5891 5891 5892 5893 5893 5893 5893 5894 5895 5896 5898 5899 5900 5901 5901 5901 5902 5902 5902 5902 5902 5903 5904 5904 5905 5906 5907 5908 5909 5910 5910 5910 5911 5911 5911 5912 5912 5912 5912 5912 5912 5912 5912 5911 5911 5910 5910 5910 5909 5909 5909 5909 5909 5909 5909 5909 5909 5908 5908 5908 5907 5907 5907 5907 5907 5907 5908 5908 5909 5909 5909 5909 5909
5883 5883 5882 5882 5883 5886 5887 5887 5887 5887 5888 5890 5890 5891 5891 5893 5894 5894 5893 5893 5895 5896 5898 5899 5900 5901 5901 5901 5902 5902 5902 5902 5903 5903 5904 5905 5906 5906 5908 5909 5910 5911 5911 5911 5911 5911 5912 5912 5912 5912 5912 5912 5912 5912 5912 5911 5911 5910 5910 5909 5909 5909 5909 5909 5909 5909 5909 5908 5908 5908 5908 5907 5907 5907 5907 5907 5907 5907 5908 5908 5908 5908 5908 5909 5909
5882 5883 5882 5882 5883 5885 5887 5887 5887 5887 5888 5889 5889 5890 5891 5892 5893 5894 5894 5893 5894 5896 5897 5899 5900 5901 5901 5902 5902 5903 5903 5903 5903 5904 5905 5905 5906 5907 5908 5909 5910 5911 5912 5912 5912 5912 5912 5912 5913 5913 5912 5912 5912 5912 5912 5912 5911 5910 5910 5910 5910 5909 5909 5909 5909 5909 5909 5909 5909 5909 5908 5908 5908 5908 5907 5907 5908 5908 5908 5908 5908 5907 5908 5908 5908
5883 5883 5883 5882 5882 5885 5886 5886 5886 5887 5888 5889 5889 5890 5891 5892 5893 5894 5894 5894 5895 5896 5897 5898 5900 5901 5902 5902 5903 5903 5903 5903 5904 5904 5905 5906 5906 5907 5909 5910 5911 5912 5913 5913 5913 5913 5913 5913 5913 5913 5913 5913 5912 5912 5912 5912 5912 5912 5911 5911 5910 5910 5910 5909 5909 5909 5909 5909 5909 5909 5908 5908 5908 5908 5908 5908 5908 5908 5907 5907 5907 5907 5907 5907 5908
5883 5883 5882 5882 5883 5885 5886 5886 5886 5887 5888 5889 5889 5890 5891 5892 5893 5894 5894 5895 5896 5897 5898 5898 5900 5901 5902 5903 5903 5903 5903 5904 5904 5905 5906 5906 5907 5908 5909 5911 5912 5912 5913 5914 5914 5914 5914 5914 5914 5914 5914 5914 5913 5913 5913 5913 5913 5913 5912 5911 5911 5910 5909 5909 5908 5908 5908 5908 5908 5908 5908 5908 5907 5907 5907 5907 5907 5907 5907 5906 5906 5906 5907 5907 5908
5883 5882 5882 5882 5884 5885 5886 5886 5887 5887 5888 5889 5890 5890 5891 5892 5893 5894 5895 5895 5896 5897 5898 5899 5900 5901 5902 5903 5903 5904 5904 5904 5905 5905 5906 5906 5907 5909 5910 5911 5912 5913 5913 5914 5914 5914 5915 5915 5915 5915 5914 5914 5914 5914 5913 5913 5913 5913 5912 5911 5911 5910 5909 5909 5908 5908 5908 5908 5907 5907 5907 5907 5907 5906 5906 5906 5906 5906 5906 5905 5905 5906 5906 5907 5907
5882 5882 5882 5883 5884 5885 5886 5886 5887 5888 5889 5890 5891 5891 5892 5893 5894 5894 5895 5896 5897 5897 5898 5899 5900 5901 5902 5903 5903 5904 5904 5905 5905 5906 5906 5907 5908 5909 5910 5911 5912 5913 5914 5914 5914 5915 5915 5915 5915 5915 5915 5915 5914 5914 5914 5913 5913 5912 5912 5911 5910 5910 5909 5908 5908 5908 5908 5907 5907 5907 5907 5907 5906 5906 5906 5906 5905 5905 5905 5905 5905 5905 5905 5906 5907
5882 5882 5882 5883 5883 5884 5886 5887 5888 5889 5890 5890 5891 5891 5892 5893 5894 5894 5896 5896 5897 5898 5899 5900 5900 5901 5902 5903 5903 5904 5905 5905 5906 5906 5907 5907 5908 5909 5911 5912 5912 5913 5914 5914 5914 5915 5915 5915 5915 5915 5915 5914 5914 5914 5913 5913 5912 5911 5910 5910 5909 5909 5908 5908 5908 5908 5907 5907 5907 5907 5907 5906 5906 5906 5905 5905 5905 5905 5905 5905 5905 5905 5905 5906 5906
5882 5882 5882 5883 5883 5884 5885 5887 5888 5889 5889 5890 5890 5891 5892 5893 5892 5894 5896 5898 5898 5898 5899 5900 5901 5902 5902 5903 5903 5904 5905 5906 5906 5906 5907 5908 5909 5910 5911 5912 5912 5913 5914 5914 5915 5915 5915 5915 5914 5914 5914 5913 5913 5912 5912 5911 5911 5910 5909 5908 5908 5907 5907 5907 5907 5907 5907 5906 5906 5906 5906 5906 5905 5905 5905 5905 5905 5905 5905 5905 5905 5905 5905 5906 5906
5882 5882 5882 5883 5883 5884 5885 5886 5887 5888 5889 5889 5890 5891 5892 5892 5892 5894 5897 5898 5898 5898 5899 5900 5901 5902 5902 5903 5903 5904 5905 5906 5906 5907 5908 5909 5910 5910 5911 5912 5913 5914 5914 5915 5915 5915 5915 5914 5914 5914 5913 5912 5912 5911 5910 5910 5910 5909 5908 5908 5907 5907 5907 5906 5906 5905 5905 5905 5905 5905 5905 5905 5905 5905 5905 5905 5904 5904 5904 5904 5905 5905 5905 5905 5905
5883 5883 5882 5882 5883 5884 5886 5886 5886 5887 5889 5889 5889 5891 5892 5893 5892 5896 5898 5898 5898 5898 5899 5900 5901 5902 5903 5903 5903 5904 5905 5906 5906 5907 5908 5909 5910 5911 5912 5913 5914 5914 5915 5915 5915 5915 5915 5914 5914 5913 5913 5912 5911 5911 5910 5910 5910 5908 5908 5908 5907 5906 5906 5906 5905 5904 5904 5904 5904 5904 5904 5904 5904 5904 5904 5904 5904 5903 5903 5903 5904 5904 5904 5904 5905
5883 5883 5883 5883 5884 5885 5886 5887 5887 5888 5889 5890 5890 5892 5893 5893 5894 5898 5899 5898 5898 5898 5899 5901 5902 5903 5903 5903 5904 5904 5905 5905 5906 5907 5908 5909 5910 5911 5912 5913 5914 5914 5915 5915 5915 5915 5915 5914 5914 5913 5913 5912 5912 5911 5911 5911 5910 5909 5908 5907 5907 5906 5905 5905 5904 5903 5903 5903 5903 5903 5903 5904 5904 5904 5904 5904 5903 5903 5903 5903 5903 5903 5903 5903 5903
5884 5884 5884 5885 5886 5886 5887 5888 5888 5889 5890 5890 5891 5893 5894 5894 5897 5900 5899 5897 5897 5898 5900 5901 5902 5903 5903 5904 5904 5904 5905 5905 5906 5907 5908 5909 5911 5912 5913 5914 5914 5914 5915 5915 5915 5915 5915 5915 5914 5914 5913 5913 5912 5912 5911 5911 5910 5910 5908 5907 5907 5906 5905 5905 5904 5903 5902 5902 5902 5902 5902 5903 5903 5903 5903 5903 5903 5903 5903 5903 5902 5902 5902 5902 5902
5884 5884 5885 5886 5887 5887 5888 5889 5889 5889 5890 5891 5892 5893 5894 5896 5900 5900 5897 5896 5897 5898 5900 5901 5902 5903 5903 5904 5904 5905 5905 5906 5906 5907 5909 5910 5911 5912 5913 5913 5914 5914 5914 5914 5915 5915 5915 5915 5914 5914 5913 5913 5912 5912 5911 5910 5910 5909 5909 5908 5907 5906 5906 5905 5904 5903 5903 5903 5903 5902 5902 5902 5902 5902 5902 5903 5903 5903 5903 5902 5902 5902 5902 5901 5901
5885 5886 5886 5887 5888 5888 5889 5889 5890 5890 5890 5891 5891 5892 5894 5898 5900 5898 5895 5895 5897 5899 5900 5902 5903 5903 5904 5904 5905 5905 5906 5906 5907 5908 5909 5910 5911 5912 5913 5913 5913 5914 5914 5914 5914 5915 5915 5914 5914 5914 5913 5912 5912 5911 5911 5910 5909 5909 5909 5908 5907 5906 5906 5905 5904 5903 5903 5903 5903 5902 5902 5901 5901 5901 5902 5902 5903 5903 5902 5902 5902 5901 5901 5900 5900
5886 5887 5888 5888 5889 5889 5890 5890 5891 5891 5892 5892 5892 5892 5895 5897 5898 5896 5894 5895 5897 5899 5900 5902 5903 5903 5904 5904 5905 5906 5906 5907 5908 5908 5909 5910 5911 5912 5913 5913 5913 5914 5914 5914 5914 5914 5914 5914 5913 5913 5912 5912 5911 5911 5911 5910 5909 5909 5908 5908 5907 5906 5906 5905 5904 5903 5903 5903 5902 5902 5902 5902 5901 5902 5902 5902 5902 5902 5902 5902 5901 5901 5900 5899 5898
5886 5887 5887 5888 5889 5890 5891 5891 5892 5893 5893 5894 5894 5894 5896 5897 5896 5895 5894 5896 5898 5899 5901 5902 5903 5903 5904 5905 5905 5906 5907 5908 5908 5909 5909 5910 5911 5912 5913 5913 5913 5913 5913 5913 5914 5914 5913 5913 5913 5913 5912 5912 5912 5911 5911 5910 5909 5908 5908 5907 5907 5906 5905 5904 5904 5903 5903 5902 5902 5902 5902 5902 5902 5902 5902 5902 5902 5902 5901 5901 5901 5900 5899 5897 5896
5886 5886 5887 5887 5888 5889 5890 5890 5891 5892 5893 5894 5894 5894 5895 5896 5895 5894 5895 5897 5899 5900 5901 5902 5903 5904 5904 5905 5906 5907 5907 5908 5909 5909 5910 5910 5911 5912 5913 5913 5913 5913 5913 5913 5914 5914 5914 5913 5913 5913 5912 5912 5912 5912 5911 5910 5909 5908 5907 5907 5906 5906 5905 5904 5904 5903 5903 5902 5902 5902 5902 5902 5902 5902 5902 5902 5901 5901 5900 5900 5899 5899 5897 5895 5894
5886 5886 5886 5886 5887 5887 5888 5888 5889 5890 5891 5892 5892 5893 5894 5895 5894 5895 5897 5898 5899 5901 5902 5903 5903 5904 5905 5905 5906 5907 5908 5909 5909 5910 5910 5911 5912 5912 5913 5913 5913 5913 5913 5914 5914 5914 5914 5914 5913 5913 5913 5912 5912 5912 5911 5911 5910 5909 5908 5908 5907 5906 5905 5904 5904 5903 5903 5902 5902 5901 5901 5902 5902 5902 5902 5901 5900 5900 5899 5899 5898 5897 5895 5894 5893
5886 5886 5886 5886 5887 5887 5887 5887 5887 5888 5889 5890 5891 5892 5893 5894 5895 5896 5898 5899 5900 5901 5902 5903 5904 5904 5905 5906 5906 5907 5908 5909 5909 5910 5910 5911 5912 5912 5913 5913 5913 5913 5913 5914 5914 5914 5914 5914 5913 5913 5913 5913 5913 5912 5912 5911 5911 5910 5909 5908 5907 5906 5905 5904 5904 5903 5903 5902 5902 5901 5901 5901 5902 5901 5901 5900 5900 5899 5899 5898 5897 5895 5893 5893 5895
5886 5886 5887 5887 5887 5887 5887 5887 5888 5888 5889 5890 5891 5892 5893 5894 5895 5897 5898 5899 5900 5901 5902 5903 5904 5905 5905 5906 5907 5908 5908 5909 5910 5910 5910 5911 5912 5912 5913 5913 5913 5913 5913 5913 5914 5914 5914 5914 5914 5913 5913 5913 5913 5913 5913 5912 5911 5910 5909 5908 5907 5906 5905 5905 5904 5904 5903 5903 5902 5902 5901 5901 5901 5901 5900 5899 5899 5898 5898 5897 5895 5894 5892 5893 5895
5887 5887 5887 5887 5887 5887 5887 5888 5888 5889 5889 5890 5891 5892 5893 5894 5896 5897 5898 5899 5900 5901 5902 5903 5904 5905 5905 5906 5907 5908 5908 5909 5910 5910 5910 5911 5912 5912 5913 5913 5913 5913 5913 5913 5914 5914 5914 5914 5914 5914 5914 5914 5914 5913 5913 5912 5911 5910 5909 5908 5907 5906 5905 5905 5904 5904 5904 5903 5903 5902 5901 5901 5900 5900 5899 5898 5898 5897 5896 5895 5894 5892 5892 5893 5893
5887 5887 5887 5887 5887 5887 5887 5888 5888 5889 5890 5890 5891 5892 5893 5894 5896 5897 5898 5899 5900 5901 5902 5903 5904 5905 5905 5906 5907 5908 5908 5909 5910 5910 5911 5911 5912 5912 5913 5913 5913 5913 5913 5913 5914 5914 5914 5914 5914 5914 5914 5914 5914 5913 5913 5912 5911 5910 5909 5908 5907 5906 5906 5905 5905 5904 5904 5904 5903 5902 5901 5901 5900 5899 5898 5897 5897 5896 5895 5894 5892 5892 5892 5892 5890
5887 5888 5888 5888 5888 5888 5888 5888 5888 5889 5890 5891 5891 5892 5893 5894 5895 5897 5898 5899 5900 5901 5902 5903 5904 5905 5905 5906 5907 5908 5908 5909 5910 5910 5911 5911 5912 5913 5913 5913 5913 5913 5913 5913 5913 5914 5913 5913 5913 5913 5913 5913 5913 5914 5913 5912 5911 5910 5909 5908 5907 5907 5906 5905 5905 5905 5904 5904 5903 5902 5901 5900 5899 5898 5897 5896 5896 5895 5894 5893 5892 5892 5890 5890 5888
5888 5888 5888 5888 5888 5888 5888 5888 5888 5889 5890 5890 5891 5892 5893 5894 5895 5896 5897 5898 5900 5901 5902 5903 5904 5905 5905 5906 5906 5907 5908 5909 5910 5911 5911 5912 5912 5913 5913 5913 5913 5913 5913 5913 5913 5913 5913 5913 5913 5913 5913 5913 5913 5913 5913 5911 5910 5910 5909 5908 5908 5907 5906 5906 5905 5905 5904 5904 5903 5902 5901 5900 5898 5897 5896 5896 5896 5895 5894 5892 5891 5891 5888 5887 5888
5889 5889 5889 5889 5889 5889 5889 5889 5889 5889 5890 5890 5891 5892 5893 5894 5895 5896 5897 5898 5899 5900 5901 5902 5903 5904 5905 5905 5906 5907 5908 5909 5910 5911 5911 5912 5912 5912 5912 5912 5913 5913 5913 5913 5913 5913 5913 5913 5912 5912 5912 5912 5913 5913 5912 5911 5910 5909 5909 5908 5907 5907 5907 5906 5906 5905 5904 5903 5902 5902 5901 5899 5898 5897 5896 5896 5895 5895 5894 5892 5891 5890 5887 5886 5886
5889 5889 5889 5889 5889 5889 5889 5889 5889 5890 5890 5890 5891 5892 5893 5893 5894 5895 5896 5897 5898 5899 5900 5901 5903 5903 5904 5905 5905 5906 5908 5909 5910 5911 5911 5912 5912 5912 5912 5912 5912 5912 5912 5913 5913 5913 5913 5912 5912 5912 5912 5912 5913 5913 5912 5911 5910 5910 5909 5908 5907 5907 5907 5906 5906 5905 5904 5903 5902 5901 5900 5899 5898 5897 5896 5895 5895 5894 5893 5892 5891 5889 5888 5887 5885
5888 5889 5889 5889 5889 5889 5889 5890 5890 5890 5890 5890 5891 5892 5892 5893 5894 5895 5896 5896 5897 5898 5899 5901 5901 5902 5903 5903 5904 5906 5907 5909 5910 5910 5911 5912 5912 5912 5912 5912 5912 5912 5912 5912 5913 5913 5913 5912 5912 5912 5912 5912 5912 5912 5912 5911 5910 5910 5909 5908 5908 5907 5907 5907 5906 5906 5904 5903 5902 5901 5900 5899 5898 5897 5896 5895 5894 5893 5892 5891 5890 5888 5887 5886 5883
5888 5888 5889 5889 5889 5889 5889 5890 5890 5890 5890 5890 5891 5891 5892 5893 5893 5894 5895 5896 5897 5898 5899 5899 5900 5901 5902 5902 5903 5905 5907 5908 5909 5910 5911 5911 5912 5911 5911 5911 5912 5912 5912 5912 5912 5912 5912 5912 5912 5912 5912 5912 5913 5912 5912 5911 5911 5910 5909 5908 5908 5908 5908 5907 5906 5906 5904 5903 5902 5901 5900 5899 5898 5896 5895 5894 5893 5891 5890 5889 5888 5887 5886 5884 5881
5889 5889 5889 5888 5888 5888 5889 5889 5890 5890 5890 5890 5891 5891 5891 5892 5893 5894 5894 5895 5896 5897 5897 5898 5899 5900 5901 5902 5902 5904 5905 5907 5908 5909 5910 5911 5911 5911 5911 5911 5911 5911 5912 5912 5912 5912 5912 5912 5912 5912 5912 5912 5913 5913 5912 5912 5912 5911 5910 5909 5908 5908 5907 5907 5906 5905 5904 5903 5902 5901 5900 5899 5897 5896 5895 5894 5893 5891 5890 5888 5887 5886 5884 5882 5879
5889 5890 5890 5889 5888 5888 5888 5889 5889 5889 5890 5890 5890 5891 5891 5892 5892 5893 5894 5894 5895 5896 5896 5897 5898 5899 5900 5901 5902 5903 5904 5906 5907 5908 5909 5910 5910 5910 5910 5910 5911 5911 5911 5912 5912 5912 5912 5912 5912 5912 5912 5913 5913 5913 5913 5913 5912 5911 5909 5908 5908 5907 5907 5906 5906 5905 5904 5903 5902 5901 5900 5899 5897 5895 5894 5893 5893 5892 5890 5889 5886 5885 5883 5880 5878
5889 5889 5890 5890 5889 5888 5888 5888 5889 5889 5889 5889 5890 5890 5891 5891 5892 5892 5893 5894 5894 5895 5896 5896 5897 5898 5899 5900 5900 5902 5903 5904 5905 5907 5908 5909 5909 5909 5910 5910 5910 5911 5911 5911 5912 5912 5912 5912 5912 5912 5913 5913 5913 5913 5913 5912 5911 5910 5909 5908 5908 5907 5906 5906 5905 5905 5904 5903 5902 5901 5901 5899 5896 5895 5893 5892 5893 5892 5890 5889 5887 5885 5883 5881 5878
5889 5889 5889 5889 5890 5889 5888 5888 5888 5888 5888 5889 5889 5890 5890 5890 5891 5891 5892 5893 5894 5894 5895 5895 5896 5897 5898 5899 5899 5901 5902 5903 5904 5906 5907 5907 5908 5908 5909 5910 5910 5910 5911 5911 5911 5912 5912 5912 5912 5913 5913 5914 5913 5913 5912 5912 5911 5910 5909 5908 5908 5907 5906 5906 5905 5905 5904 5903 5902 5901 5901 5899 5897 5895 5893 5893 5895 5893 5891 5890 5888 5886 5884 5882 5878
5889 5889 5888 5889 5889 5890 5889 5887 5887 5887 5887 5888 5888 5889 5889 5889 5890 5890 5891 5892 5892 5893 5894 5894 5895 5896 5897 5898 5899 5900 5901 5902 5903 5905 5906 5906 5907 5907 5908 5909 5909 5910 5910 5911 5911 5912 5912 5912 5913 5913 5913 5913 5913 5913 5912 5912 5911 5910 5909 5908 5908 5907 5906 5906 5905 5905 5904 5903 5902 5901 5901 5899 5897 5896 5893 5895 5897 5894 5892 5891 5889 5888 5885 5881 5877
5889 5889 5888 5888 5889 5890 5889 5888 5887 5887 5887 5887 5887 5888 5888 5888 5889 5889 5890 5890 5891 5892 5893 5893 5894 5895 5896 5897 5898 5899 5900 5901 5903 5904 5905 5905 5906 5906 5908 5909 5909 5909 5910 5910 5911 5912 5912 5912 5913 5913 5913 5913 5913 5913 5913 5912 5911 5910 5909 5908 5908 5907 5907 5906 5906 5905 5904 5904 5903 5902 5900 5899 5898 5896 5895 5898 5898 5894 5893 5891 5890 5888 5885 5882 5878
5889 5889 5888 5888 5889 5889 5889 5888 5887 5886 5886 5886 5887 5887 5887 5888 5888 5888 5889 5889 5890 5891 5891 5892 5893 5894 5896 5896 5897 5898 5899 5900 5902 5903 5904 5905 5905 5906 5907 5908 5908 5909 5910 5910 5911 5912 5912 5913 5913 5913 5913 5913 5913 5913 5913 5912 5910 5910 5909 5909 5908 5908 5907 5907 5907 5906 5905 5905 5903 5902 5900 5899 5898 5896 5897 5900 5899 5895 5894 5892 5890 5888 5885 5882 5879
5889 5889 5888 5888 5889 5889 5889 5887 5886 5886 5886 5886 5886 5886 5886 5887 5887 5887 5888 5888 5889 5890 5890 5891 5892 5894 5895 5896 5897 5897 5898 5900 5901 5902 5903 5904 5905 5905 5906 5907 5908 5908 5909 5910 5911 5911 5912 5912 5913 5913 5913 5913 5913 5913 5912 5911 5911 5910 5910 5909 5908 5908 5908 5908 5908 5907 5906 5905 5904 5902 5900 5899 5899 5898 5898 5902 5900 5896 5895 5894 5891 5889 5885 5883 5881
5887 5887 5888 5888 5888 5888 5887 5887 5886 5886 5886 5885 5885 5885 5886 5886 5886 5886 5887 5887 5888 5889 5889 5891 5892 5893 5894 5895 5896 5897 5898 5899 5900 5901 5902 5903 5904 5905 5906 5907 5907 5908 5909 5910 5910 5911 5911 5912 5912 5912 5913 5913 5913 5913 5912 5911 5910 5910 5910 5909 5909 5909 5909 5909 5909 5908 5907 5906 5904 5902 5901 5900 5901 5900 5900 5902 5902 5899 5896 5894 5892 5889 5886 5884 5882
5886 5886 5886 5887 5887 5886 5886 5886 5886 5886 5885 5885 5885 5885 5885 5885 5885 5886 5886 5886 5887 5888 5888 5889 5890 5891 5892 5894 5895 5896 5897 5898 5899 5901 5901 5902 5903 5904 5905 5906 5906 5907 5908 5909 5910 5910 5911 5911 5912 5912 5912 5912 5913 5912 5912 5911 5911 5910 5910 5910 5910 5910 5910 5910 5910 5909 5907 5906 5905 5903 5903 5903 5902 5902 5900 5901 5902 5900 5897 5894 5892 5890 5888 5886 5883
5884 5885 5885 5886 5885 5885 5885 5885 5885 5885 5885 5884 5884 5885 5885 5885 5885 5885 5885 5886 5886 5887 5887 5888 5889 5890 5891 5892 5893 5894 5896 5897 5898 5900 5901 5901 5902 5903 5904 5905 5906 5907 5908 5909 5910 5910 5911 5911 5911 5912 5912 5912 5912 5912 5911 5911 5911 5911 5911 5910 5911 5911 5911 5911 5910 5910 5908 5907 5906 5905 5905 5905 5904 5903 5901 5900 5901 5900 5898 5896 5893 5892 5890 5888 5886
5883 5883 5884 5884 5884 5884 5884 5885 5885 5885 5884 5884 5884 5884 5884 5884 5884 5884 5884 5885 5885 5886 5887 5888 5889 5890 5891 5892 5893 5894 5895 5896 5897 5899 5900 5901 5902 5902 5904 5905 5905 5906 5907 5909 5909 5910 5910 5910 5911 5911 5912 5912 5912 5912 5911 5911 5911 5911 5911 5911 5911 5911 5912 5912 5911 5910 5909 5908 5908 5908 5907 5907 5905 5904 5904 5902 5901 5900 5899 5897 5896 5894 5892 5891 5889
5882 5883 5883 5883 5883 5883 5883 5884 5884 5884 5884 5883 5884 5884 5884 5884 5884 5884 5884 5884 5885 5885 5886 5888 5889 5890 5891 5892 5893 5893 5894 5895 5896 5898 5899 5900 5901 5902 5903 5905 5905 5906 5907 5908 5909 5909 5909 5910 5911 5911 5911 5912 5912 5911 5911 5911 5912 5912 5912 5912 5912 5912 5913 5913 5912 5911 5910 5910 5910 5909 5908 5908 5907 5906 5906 5904 5903 5901 5900 5899 5898 5896 5894 5893 5892
5881 5882 5882 5882 5882 5882 5882 5883 5884 5884 5883 5883 5883 5884 5884 5884 5884 5884 5884 5884 5884 5885 5886 5887 5888 5889 5891 5892 5892 5893 5894 5895 5896 5897 5898 5899 5901 5902 5903 5905 5906 5906 5907 5908 5909 5909 5909 5910 5910 5910 5911 5911 5911 5911 5911 5912 5912 5912 5912 5913 5913 5913 5913 5913 5913 5912 5911 5911 5910 5910 5909 5909 5908 5908 5907 5905 5903 5902 5901 5900 5899 5898 5896 5895 5894
5880 5880 5880 5881 5880 5881 5882 5882 5883 5883 5883 5883 5883 5883 5883 5884 5884 5883 5883 5884 5884 5885 5885 5886 5887 5888 5889 5890 5892 5893 5893 5894 5895 5896 5897 5899 5900 5902 5903 5905 5906 5906 5907 5908 5908 5909 5909 5910 5910 5910 5910 5911 5911 5911 5911 5911 5912 5912 5913 5913 5913 5914 5914 5914 5913 5913 5912 5911 5911 5910 5910 5910 5909 5908 5907 5906 5904 5903 5902 5901 5901 5900 5898 5897 5897
5878 5878 5879 5879 5879 5880 5880 5881 5882 5883 5883 5883 5883 5883 5883 5884 5884 5883 5883 5883 5884 5884 5885 5886 5887 5887 5888 5889 5891 5892 5893 5894 5895 5896 5897 5898 5900 5901 5903 5904 5905 5905 5906 5907 5908 5908 5909 5909 5909 5910 5910 5910 5910 5911 5911 5911 5912 5912 5913 5913 5914 5914 5915 5914 5913 5913 5912 5912 5911 5911 5911 5910 5910 5909 5908 5907 5905 5904 5904 5903 5902 5901 5901 5900 5899
5876 5876 5877 5877 5878 5878 5879 5880 5882 5884 5883 5882 5882 5883 5884 5884 5883 5883 5883 5883 5883 5884 5885 5886 5887 5887 5888 5888 5889 5891 5892 5893 5894 5895 5896 5898 5899 5900 5902 5903 5904 5904 5905 5906 5907 5908 5908 5909 5909 5909 5910 5910 5910 5911 5911 5911 5912 5913 5913 5913 5914 5915 5915 5915 5914 5913 5913 5912 5912 5912 5911 5911 5910 5909 5908 5907 5906 5905 5905 5904 5904 5903 5902 5901 5900